www.pogodaiklimat.ru

Погода и климат >> Архив погоды >> Фиджи >> Ясава-и-Рара


ПОГОДА в Ясава-и-Рара

  • Прогноз погоды в Ясава-и-Рара
  • Монитор погоды в Ясава-и-Рара

АРХИВ ПОГОДЫ в Ясава-и-Рара

Время (UTC), дата Ветер
(напр.,м/с)
 
Видим.   Явления Облачность Т
(С)
Тd
(С)
f
(%)
Тe
(С)
Тes
(С)
Комфортность P
(гПа)
Po
(гПа)
Тmin
(С)
Tmax
(С)
R
(мм)
R24
(мм)
S
(см)
06 12.02 В 2 н/о н/о +29.2 +25.1 79 +42 +42 опасность
перегрева
999.8 993.8
09 12.02 ЮВ 3 н/о н/о +28.2 +24.7 81 +40 +40 очень
душно
1001.8 995.7
12 12.02 В 5 н/о н/о +27.0 +25.1 89 +39 +39 очень
душно
1001.4 995.3 +32.4 0.5
15 12.02 В 5 н/о н/о +27.2 +24.8 87 +39 +39 очень
душно
1000.0 993.9
18 12.02 В 6 н/о н/о +27.3 +24.9 87 +39 +39 очень
душно
1000.4 994.3
21 12.02 В 5 н/о н/о +31.0 +26.9 79 +48 +48 опасность
перегрева
1001.7 995.7
00 13.02 СВ 4 н/о н/о +32.6 +27.1 73 +51 +51 опасность
перегрева
1001.3 995.3 +26.6
03 13.02 СВ 3 н/о н/о +31.9 +26.9 75 +50 +50 опасность
перегрева
999.1 993.1
06 13.02 СВ 3 н/о н/о +30.2 +26.2 79 +46 +46 опасность
перегрева
999.8 993.8
09 13.02 СВ 2 н/о н/о +28.0 +25.8 88 +42 +42 опасность
перегрева
1002.0 995.9
12 13.02 ЮЗ 3 н/о н/о +28.0 +26.0 89 +42 +42 опасность
перегрева
1002.1 996.0 +33.5
21 13.02 СВ 3 н/о н/о +26.3 +25.8 97 +39 +39 очень
душно
1004.8 998.7
00 14.02 С 3 н/о н/о +29.1 +26.9 88 +46 +46 опасность
перегрева
1003.7 997.6 +23.8 5
03 14.02 С 7 н/о н/о +31.0 +28.1 85 +52 +52 опасность
перегрева
1002.3 996.3
06 14.02 С 5 н/о н/о +29.2 +27.5 91 +47 +47 опасность
перегрева
1003.3 997.2
09 14.02 С 8 н/о н/о +27.9 +26.5 92 +43 +43 опасность
перегрева
1005.7 999.6
15 14.02 С 6 н/о н/о +28.7 +26.1 86 +43 +43 опасность
перегрева
1003.7 997.6
18 14.02 С 6 н/о н/о +28.6 +26.3 87 +43 +43 опасность
перегрева
1004.4 998.3
21 14.02 С 6 н/о н/о +29.7 +26.4 82 +45 +45 опасность
перегрева
1006.0 999.9
00 15.02 С 5 н/о н/о +29.7 +26.4 82 +45 +45 опасность
перегрева
1005.5 999.4 +26.2
03 15.02 С 6 н/о н/о +31.0 +26.7 78 +48 +48 опасность
перегрева
1004.2 998.2
06 15.02 С 5 н/о н/о +29.7 +26.7 84 +46 +46 опасность
перегрева
1004.3 998.3
09 15.02 С 6 н/о н/о +29.3 +26.7 86 +46 +46 опасность
перегрева
1006.5 1000.4
12 15.02 С 5 н/о н/о +27.7 +27.0 96 +44 +44 опасность
перегрева
1006.6 1000.5 +31.8 23
15 15.02 С 3 н/о н/о +26.7 +25.3 92 +39 +39 очень
душно
1005.0 998.9
18 15.02 С 6 н/о н/о +28.3 +26.7 91 +44 +44 опасность
перегрева
1006.4 1000.3
21 15.02 С 5 н/о н/о +29.2 +27.1 88 +46 +46 опасность
перегрева
1007.6 1001.5
00 16.02 СВ 8 н/о н/о +26.7 +26.1 97 +40 +40 очень
душно
1007.4 1001.3 +24.6 12
03 16.02 СВ 3 н/о н/о +28.3 +27.1 93 +45 +45 опасность
перегрева
1005.8 999.7
06 16.02 СВ 5 н/о н/о +28.7 +27.1 91 +45 +45 опасность
перегрева
1005.5 999.4 6
09 16.02 СВ 5 н/о н/о +27.0 +25.7 93 +40 +40 очень
душно
1007.5 1001.4
12 16.02 СВ 4 н/о н/о +27.6 +26.3 93 +42 +42 опасность
перегрева
1007.6 1001.5 +33.5
15 16.02 С 5 н/о н/о +27.8 +26.5 93 +43 +43 опасность
перегрева
1006.1 1000.0
18 16.02 С 3 н/о н/о +25.9 +24.9 94 +37 +37 очень
душно
1006.3 1000.2 5
21 16.02 С 4 н/о н/о +29.5 +26.5 84 +45 +45 опасность
перегрева
1007.9 1001.8
00 17.02 С 3 н/о н/о +31.5 +27.1 78 +50 +50 опасность
перегрева
1007.2 1001.2 +25.0
03 17.02 С 5 н/о н/о +32.4 +27.1 74 +51 +51 опасность
перегрева
1005.7 999.7
06 17.02 С 5 н/о н/о +27.4 +25.3 88 +40 +40 очень
душно
1006.9 1000.8
09 17.02 С 4 н/о н/о +27.0 +26.2 95 +41 +41 опасность
перегрева
1008.4 1002.3
12 17.02 С 6 н/о н/о +27.7 +26.2 92 +42 +42 опасность
перегрева
1008.5 1002.4 +32.5 2
15 17.02 С 5 н/о н/о +26.9 +25.4 92 +39 +39 очень
душно
1007.2 1001.1
18 17.02 СВ 4 н/о н/о +26.2 +25.6 97 +39 +39 очень
душно
1007.3 1001.2 2
21 17.02 С 6 н/о н/о +31.1 +28.1 84 +51 +51 опасность
перегрева
1008.8 1002.8
00 18.02 СВ 3 н/о н/о +29.0 +26.4 86 +44 +44 опасность
перегрева
1009.0 1002.9 +25.8
03 18.02 С 5 н/о н/о +31.6 +27.3 78 +50 +50 опасность
перегрева
1006.7 1000.7
06 18.02 С 4 н/о н/о +30.0 +26.9 84 +47 +47 опасность
перегрева
1007.3 1001.2
09 18.02 С 6 н/о н/о +28.4 +26.4 89 +43 +43 опасность
перегрева
1008.9 1002.8
12 18.02 С 5 н/о н/о +28.0 +26.2 90 +42 +42 опасность
перегрева
1010.0 1003.9 +34.3
15 18.02 С 5 н/о н/о +27.3 +26.4 95 +42 +42 опасность
перегрева
1007.8 1001.7
18 18.02 С 5 н/о н/о +27.6 +25.8 90 +41 +41 опасность
перегрева
1008.1 1002.0 2
21 18.02 С 4 н/о н/о +31.3 +27.5 80 +50 +50 опасность
перегрева
1009.5 1003.5
00 19.02 С 5 н/о н/о +33.6 +28.7 76 +57 +57 опасность
перегрева
1008.6 1002.6 +26.4
03 19.02 С 4 н/о н/о +30.5 +27.2 83 +49 +49 опасность
перегрева
1007.0 1001.0

 

Местоположение метеостанции Ясава-и-Рара (Фиджи): широта -16.70 долгота 177.58 высота над уровнем моря 50 м.

В архиве по умолчанию представлена погода в Ясава-и-Рара за последнюю неделю. Архивные данные за месяц целиком и за предыдущие месяцы, начиная с января 2011 года, Вы можете получить, выбрав интересующий диапазон дат из раскрывающегося списка и нажав кнопку "Ввод!".


*Определитесь, кто Вы:
робот инопланетянин человек

Внимание! Время в таблицах - всемирное. Для получения местного времени необходимо прибавить поправку, которая равна 12 ч.

Смотрите также архив погоды в соседних городах и на ближайших метеорологических станциях:

Погода на Острове Вива (Фиджи) (88 км)
Погода в Ракираки (Фиджи) (99 км)
Погода в Нанди (Фиджи) (118 км)
Погода в Нэбаууолу (Фиджи) (124 км)
Погода на Вануа Мбалаву (Фиджи) (155 км)
Погода в Наусори (Фиджи) (183 км)
Погода в Сигатоке (Фиджи) (184 км)
Погода в Ламбасе (Фиджи) (198 км)
Погода на Вануа Леву (Фиджи) (264 км)
Погода в Вьюнисея (Фиджи) (268 км)

Пояснения к столбцам:

Ветер - указаны скорость ветра в м/с - средняя за 10 мин, порывы в срок и между сроками (в фигурных скобках) и направление, откуда дует ветер: С - северный, СВ - северо-восточный, В - восточный, ЮВ - юго-восточный, Ю - южный, ЮЗ - юго-западный, З - западный, СЗ - северо-западный.
Видимость - горизонтальная дальность видимости в метрах или километрах. При видимости от 1 до 10 км при отсутствии осадков обычно наблюдается дымка, при ухудшении видимости до 1 км и менее - туман. В сухую погоду видимость может ухудшаться дымом, пылью или мглою.
Явления - указаны атмосферные явления, наблюдавшиеся в срок или в последний час перед сроком; фигурными скобками обозначены явления, наблюдавшиеся между сроками (за 1-3 часа до срока); квадратными скобками обозначены град или гололедные отложения с указанием их диаметра в мм.
Облачность - указаны через наклонную черту общая и нижняя облачность в баллах и высота нижней границы облаков в метрах; квадратными скобками обозначены формы облаков: Ci - перистые, Cs - перисто-слоистые, Cc - перисто-кучевые, Ac - высококучевые, As - высокослоистые, Sc - слоисто-кучевые, Ns - слоисто-дождевые, Cu - кучевые, Cb - кучево-дождевые. Подробнее классификацию облаков см. в Атласе облаков (PDF).
T - Температура воздуха - температура, измеренная на высоте 2 м над землей.
Td - Температура точки росы - температура, при понижении до которой содержащийся в воздухе водяной пар достигнет насыщения.
f - Относительная влажность воздуха - влажноcть воздуха, измеренная на высоте 2 м над землей.
Te - Эффективная температура - температура, которую ощущает одетый по сезону человек в тени. Характеристика душности погоды. При расчете учитывается влияние влажности воздуха и скорости ветра на теплоощущения человека.
Tes - Эффективная температура на солнце - температура, которую ощущает человек, с поправкой на солнечный нагрев. Характеристика знойности погоды. Зависит от высоты солнца над горизонтом, облачности и скорости ветра. Ночью, в пасмурную погоду, а также при ветре 12 м/с и более поправка равна нулю.
P - Атмосферное давление - приведенное к уровню моря атмосферное давление.
Po - Атмосферное давление - измеренное на уровне метеостанции атмосферное давление.
Tmin - Минимальная температура - минимум температуры воздуха на высоте 2 м над землей.
Tmax - Максимальная температура - максимум температуры воздуха на высоте 2 м над землей.
R - Количество осадков - Количество выпавших осадков за период времени, мм. При наведении курсора мыши на число - период времени, за который выпало указанное количество осадков.
R24 - Количество осадков - Количество выпавших осадков за 24 часа, мм.
S - Снежный покров - Высота снежного покрова, см. При наведении курсора мыши на число - состояние снежного покрова и степень покрытия местности в баллах.